Lid_Strength_Index
14 17 17 16 15 15 16 17 18 16 13 15 15 15 16 15 15 16 16 16 16 16 15 15 15 15 15 14 14 13 13 12 11 11 10 10 10 9 10 10 10 8 7 6
16 18 15 14 15 16 17 18 17 16 14 15 15 16 16 16 16 16 16 16 16 16 15 15 15 15 15 15 14 14 14 13 13 12 12 12 12 11 11 11 11 11 11 10
16 14 13 14 16 16 17 17 17 16 16 16 18 17 17 16 15 15 15 15 15 15 15 15 15 15 15 15 15 14 14 14 13 13 13 13 13 14 14 14 13 13 12 13
16 14 14 15 16 15 17 14 15 16 17 19 17 20 18 17 17 16 16 16 16 16 15 15 15 16 16 16 15 14 14 14 14 13 14 14 15 16 15 15 15 15 14 14
15 15 15 16 15 14 15 15 15 16 18 19 19 19 19 17 18 17 16 16 16 15 15 15 15 15 15 15 16 15 15 14 14 14 15 15 16 16 16 16 17 16 16 15
14 14 14 14 14 13 14 16 16 17 18 21 18 17 19 18 16 16 15 15 15 15 15 15 15 15 15 15 16 16 15 15 14 14 15 15 16 17 17 17 18 17 16 16
16 15 14 14 15 15 15 16 19 21 21 20 18 19 17 16 15 14 15 15 16 15 15 15 15 15 15 15 15 15 15 15 15 15 15 15 16 17 17 18 17 17 16 16
17 17 14 14 14 15 16 15 19 24 22 20 17 19 17 16 15 14 14 15 15 14 14 14 14 15 15 15 15 15 15 15 15 15 15 15 14 15 16 16 16 16 16 15
17 16 14 14 13 13 16 17 14 18 20 23 18 17 16 16 16 16 16 15 15 15 14 14 14 14 14 15 14 14 15 15 14 14 14 15 15 14 15 15 15 15 15 15
14 16 14 14 13 15 14 13 17 18 23 24 19 18 17 18 17 16 15 15 15 15 14 14 14 14 14 14 14 13 13 13 14 15 15 15 15 15 15 15 17 16 16 15
13 14 16 14 15 15 15 16 16 15 18 23 24 19 15 15 15 15 15 14 14 14 15 14 14 13 13 13 14 14 14 14 14 13 14 15 15 15 15 15 16 16 15 16
12 15 20 16 14 14 14 15 14 16 18 17 18 17 14 13 13 13 13 13 14 14 14 14 13 14 14 14 14 14 14 14 15 14 15 14 14 14 14 14 15 15 14 15
11 16 21 16 16 15 15 14 14 14 16 16 18 18 13 13 13 12 13 13 13 14 14 14 14 14 14 14 14 14 14 14 14 14 13 14 14 14 14 14 14 14 14 14
9 14 17 17 16 15 15 13 13 14 17 16 16 14 15 14 13 13 12 12 13 14 15 15 15 15 15 14 14 14 14 14 14 14 14 14 14 14 14 14 14 14 14 14
11 15 16 16 15 15 15 15 14 16 14 16 15 15 13 12 12 12 12 13 14 15 15 15 15 15 14 14 14 14 14 14 14 14 14 14 14 14 14 14 14 14 14 15
13 17 16 17 16 15 16 15 15 14 14 15 14 14 12 12 12 13 13 14 14 14 14 14 13 13 13 13 14 13 14 14 14 15 14 14 15 15 15 15 15 16 16 16
14 17 18 17 19 19 20 18 16 15 15 14 16 12 15 15 14 13 13 14 14 14 13 13 13 13 13 13 13 14 15 14 15 15 16 16 15 16 16 16 16 16 16 16
15 16 18 22 23 23 17 19 18 16 15 16 16 18 16 15 14 14 14 14 13 13 13 13 13 14 13 14 14 14 15 15 15 16 17 16 16 17 16 16 17 17 17 17
15 16 22 21 24 21 18 18 19 20 19 17 16 17 15 15 16 17 14 14 13 13 13 13 13 14 14 15 15 16 16 16 16 16 15 16 16 18 17 19 18 18 19 19
16 15 15 25 23 25 20 20 17 16 22 20 18 17 16 16 19 16 14 13 13 12 12 13 13 14 15 16 16 16 16 16 17 15 16 16 17 20 20 19 20 20 20 20
22 19 18 21 19 21 18 17 15 22 19 19 17 15 15 16 14 14 13 13 13 12 13 14 14 15 16 16 16 17 17 17 16 17 17 18 18 20 21 21 21 21 22 21
22 22 23 20 20 22 16 15 17 15 15 15 14 14 14 13 13 13 13 13 13 14 14 15 16 16 16 16 17 17 18 17 18 18 19 21 22 22 21 23 22 22 23 23
21 19 20 18 19 15 15 14 12 12 14 13 12 12 12 13 13 13 13 13 13 14 15 16 17 16 16 16 17 19 18 18 19 24 25 25 23 22 22 23 23 23 23 23
19 17 20 19 17 15 13 11 11 11 11 11 11 12 12 13 13 13 13 13 14 15 16 17 18 18 18 19 18 20 20 19 27 30 26 23 23 22 22 21 21 22 23 24
17 17 19 19 15 13 12 11 10 10 11 12 12 12 12 13 13 12 13 14 14 14 15 17 17 18 19 19 21 24 22 25 26 25 23 23 22 23 22 21 21 21 20 20
16 17 17 18 13 12 12 11 11 11 11 11 12 13 12 11 11 12 12 13 14 16 17 18 19 19 21 22 23 25 27 28 29 25 22 22 22 22 22 22 22 17 16 15